Other Public Products
Issued by NWS Grand Forks, ND

Home | Current Version | Previous Version | Graphics & Text | Print | Product List | Glossary On
Versions: 1 2 3 4 5 6 7 8 9 10 11 12 13 14 15 16 17 18 19 20 21 22 23 24 25 26 27 28 29 30 31 32 33 34 35 36 37 38 39 40 41 42 43 44 45 46 47 48 49 50
000
FPUS83 KFGF 250931
OPUFGF
PRAIRIE TO PINES WEATHER ROUNDUP
NATIONAL WEATHER SERVICE EASTERN NORTH DAKOTA/GRAND FORKS ND
400 AM CDT SAT APR 25 2015

 **SATELLITE DATA USED TO AUGMENT SKY COVER AT AUTOMATED STATIONS**
 *****  WEATHER ACROSS EASTERN NORTH DAKOTA  *****

CITY           SKY/WX    TMP DP  RH WIND       PRES   REMARKS
GRAND FORKS    CLOUDY    45  34  65 E8        29.83R
GRAND FORKS AF CLOUDY    43  33  68 E7        29.82R
GRAND CITY NWS   N/A     41 N/A N/A E6          N/A
BUXTON           N/A     43  35  74 CALM        N/A
DEVILS LAKE    CLOUDY    43  36  75 E12       29.79S
FARGO          CLOUDY    44  35  70 E12       29.79R
WAHPETON ARPT  CLOUDY    43  39  87 E9        29.78S
$$

 *****  WEATHER ACROSS CENTRAL AND WESTERN NORTH DAKOTA  *****

CITY           SKY/WX    TMP DP  RH WIND       PRES   REMARKS
JAMESTOWN      CLOUDY    42  41  96 E10       29.76R FOG
BISMARCK       CLOUDY    45  41  86 E14       29.75R
MINOT          CLEAR     36  34  92 E3        29.76R FOG
MINOT AFB      CLEAR     36  36 100 SE9       29.75S
GARRISON         N/A     39  38  96 E10       29.73S
WILLISTON      PTCLDY    46  37  71 E5        29.68R
DICKINSON      CLOUDY    42  40  92 SE12      29.69R FOG
HETTINGER      CLOUDY    42  40  92 E10       29.70S FOG
$$

 *****  OTHER OBSERVATIONS NORTHEAST NORTH DAKOTA  *****

CITY           SKY/WX    TMP DP  RH WIND       PRES   REMARKS
WALHALLA       CLOUDY    30  30 100 NW3       29.86R
LANGDON        CLOUDY    37  32  81 E8        29.83R
CAVALIER       CLOUDY    39  34  81 SE3       29.85S
GRAFTON        CLOUDY    43  34  70 E8        29.85S
CANDO          CLOUDY    39  36  87 E7        29.82R
FORT TOTTEN      N/A     42  38  84 SE6       29.95S
ROLLA          FAIR      32  32 100 SE7       29.81S
RUGBY          NOT AVBL
 ***** THE ABOVE OBSERVATIONS ARE NON NWS ARE NOT QUALITY
        CONTROLLED AND MAY MIS-REPORT RAIN FOR SNOW...
$$

 *****  OTHER OBSERVATIONS SOUTHEAST NORTH DAKOTA *****

CITY           SKY/WX    TMP DP  RH WIND       PRES   REMARKS
COOPERSTOWN    NOT AVBL
VALLEY CITY    CLOUDY    41  41 100 E10       29.78R FOG
OAKES            N/A     41  41 100 E13       29.73S FOG
GWINNER        CLOUDY    43  43 100 E13       29.76R
SHEYENNE NWR     N/A     44  41  89 E9        29.95
BUFFALO        NOT AVBL
WYNDMERE       NOT AVBL
 ***** THE ABOVE OBSERVATIONS ARE NON NWS ARE NOT QUALITY
       CONTROLLED AND MAY MIS-REPORT RAIN FOR SNOW...
$$

  *****  WEATHER ACROSS NORTHERN MINNESOTA  *****

CITY           SKY/WX    TMP DP  RH WIND       PRES   REMARKS
FLAG ISLAND    CLOUDY    39  25  56 E8        29.92R
WARROAD        CLOUDY    37  30  75 E6        29.91R
ROSEAU         CLOUDY    39  30  70 E7        29.89R
HALLOCK        CLOUDY    41  32  70 E7        29.86R
THF RVR FALLS  CLOUDY    43  30  61 E10       29.86R
HALSTAD          N/A     44  34  68 E9          N/A
FOSSTON        CLOUDY    39  30  70 E8        29.84S
BAUDETTE       CLOUDY    39  23  52 SE12      29.90R
WASKISH        CLOUDY    37  25  60 E3        29.89S
CROOKSTON      CLOUDY    43  32  65 E8        29.84R
$$
  *****  WEATHER ACROSS CENTRAL AND WEST MINNESOTA  *****

CITY           SKY/WX    TMP DP  RH WIND       PRES   REMARKS
BEMIDJI        CLOUDY    38  27  63 E9        29.87R
PARK RAPIDS    CLOUDY    41  31  67 E9        29.83R
WADENA         CLOUDY    39  34  81 E10G17    29.81R
DETROIT LAKES  CLOUDY    41  34  75 SE10G17   29.82R
MOORHEAD       CLOUDY    43  36  75 E7        29.81R
FERGUS FALLS   CLOUDY    43  39  87 E8        29.80R
ELBOW LAKE     CLOUDY    42  41  97 E12       29.76R
MORRIS MN      CLOUDY    43  43 100 E15       29.74S FOG
STAPLES        CLOUDY    39  32  75 E8        29.82R
WHEATON        CLOUDY    39  39 100 E14       29.76F FOG
$$
  *****  WEATHER ELSEWHERE ACROSS MINNESOTA  *****

CITY           SKY/WX    TMP DP  RH WIND       PRES   REMARKS
DULUTH         CLOUDY    35  23  61 E9        29.90S
INTRNTL FALLS  CLOUDY    37  19  48 E8        29.93S
ELY            CLOUDY    36  14  41 E5        29.95S
CLOQUET        CLOUDY    36  25  64 E9        29.90S
BRAINERD       CLOUDY    38  31  76 E6        29.84F
HIBBING        CLOUDY    37  17  44 E7        29.90F
ALEXANDRIA     LGT RAIN  41  40  96 E13       29.79R FOG
SAINT CLOUD    CLOUDY    43  38  82 E7        29.81R
MINNEAPOLIS    CLOUDY    43  38  82 E14       29.81S
$$

  *****  WEATHER ACROSS SOUTH DAKOTA  *****

CITY           SKY/WX    TMP DP  RH WIND       PRES   REMARKS
SIOUX FALLS    CLOUDY    46  44  93 E18       29.62S
BROOKINGS      CLOUDY    45  45 100 E10       29.66S
WATERTOWN      CLOUDY    43  41  93 E13G22    29.65F FOG
HURON          CLOUDY    48  46  93 NE9       29.62R
SISSETON         N/A     43  42  97 SE14      29.72S
ABERDEEN       CLOUDY    45  42  89 NE13      29.70R
MITCHELL       CLOUDY    50  49  96 E3        29.58R
PIERRE         CLOUDY    48  47  96 E16       29.62R FOG
MOBRIDGE       CLOUDY    46  43  89 NE10      29.66R FOG
RAPID CITY     PTCLDY    41  37  86 NW9       29.65R
$$

  *****  SOME WEATHER IN NEARBY STATES *****

CITY           SKY/WX    TMP DP  RH WIND       PRES   REMARKS
GLASGOW MT     CLOUDY    50  36  58 NW8       29.60S
GREAT FALLS MT CLOUDY    41  32  70 N3        29.75R
CHEYENNE WY    MOCLDY    44  31  60 NW7       29.72S
SCOTTSBLUFF NE CLEAR     43  41  93 NW9       29.66R
OMAHA NE       TSTM      54  52  93 E22G29    29.45F
DES MOINES IA  LGT RAIN  50  42  74 E16G26    29.55F
DAVENPORT IA   LGT RAIN  41  38  89 E17       29.72F FOG
CHICAGO IL     CLOUDY    43  38  82 E13       29.81F
EAU CLAIRE WI  CLOUDY    41  34  76 E13       29.86S
LA CROSSE WI   CLOUDY    43  35  73 E6        29.83F
$$

  *****  SOME NATIONAL WEATHER *****

CITY           SKY/WX    TMP DP  RH WIND       PRES   REMARKS
LA GUARDIA NY  CLEAR     39  22  50 W14       29.91R
RALEIGH NC     MOCLDY    45  40  82 NE3       29.90F
ATLANTA GA     CLOUDY    65  51  60 CALM      29.89R
NEW ORLEANS LA CLOUDY    78  74  87 W8        29.83R
OKLAHOMA CITY  CLEAR     61  49  64 SW13      29.56R
ALBUQUERQUE NM PTCLDY    50  32  50 W9        29.96S
SALT LAKE CITY MOCLDY    47  42  83 N5        29.82S
LOS ANGELES CA PTCLDY    57  51  80 W6        29.99F
BOISE ID       MOCLDY    46  31  55 W6        29.78S
SEATTLE WA     MOCLDY    45  41  86 S3        29.90R
$$

*** WEATHER ACROSS MANITOBA...SASKATCHEWAN AND ONTARIO ***
                ***ONTARIO***

CITY           SKY/WX    TMP DP  RH WIND       PRES   REMARKS
GERALDTON      CLEAR     18  16  93 N2        30.06S
THUNDER BAY    PTCLDY    28  25  86 E3        30.04F
SIOUX LOOKOUT  CLOUDY    32  18  55 E6        30.00R
TORONTO        CLEAR     28  21  74 N5        30.00R WCI  23
BIG TROUT LK   CLEAR      9   7  92 E2        30.14S
PICKLE LAKE    NOT AVBL
DRYDEN         CLOUDY    37  25  60 E6        29.96R
KENORA         CLOUDY    39  23  52 SE7       29.93
$$
                *** MANITOBA***

CITY           SKY/WX    TMP DP  RH WIND       PRES   REMARKS
BRANDON        CLEAR     30  27  86 E8        29.84S WCI  23
DAUPHIN        MOCLDY    39  34  81 E8        29.85R
ISLAND LAKE    PTCLDY    27  14  59 E6        30.04S WCI  20
PILOT MOUND      N/A     32  28  86 E8          N/A  WCI  25
THE PAS        FLURRIES  25  23  93 N8        29.96R WCI  16
THOMPSON       CLOUDY    25  23  93 NE8       30.03  WCI  16
WINNIPEG       CLEAR     34  28  80 E9        29.90S
LYNN LAKE      CLEAR     14   9  79 N2        30.06R
CHURCHILL      PTCLDY    10   7  85 S8        30.21R WCI  -1
GILLAM         SNOW      21  18  86 E7        30.14S VSB 1/2 WCI  13
$$
                ***SASKATCHEWAN***

CITY           SKY/WX    TMP DP  RH WIND       PRES   REMARKS
ESTEVAN        CLOUDY    45  39  81 SE15      29.72R
KINDERSLEY     CLOUDY    32  30  93 NE23G29   29.73R WCI  19
LLOYDMINSTER   CLOUDY    30  27  86 E15       29.86R WCI  19
PRINCE ALBERT  CLOUDY    28  23  80 NE15G21   29.93S WCI  17
REGINA         LGT RAIN  48  37  66 E12       29.70S



USA.gov is the U.S. government's official web portal to all federal, state and local government web resources and services.